Precipitable_Water
1.61 1.51 1.35 1.25 1.25 1.13 1.10 1.17 1.20 1.18 1.21 1.14 1.07 1.09 0.95 0.92 0.87 0.92 0.86 0.89 0.92 0.93 0.96 1.01 1.02 1.01 1.00 1.00 0.98 0.93 0.89 0.90 0.91 0.93 0.93 0.94 0.94 0.93 0.90 0.85 0.83 0.79 0.77
1.62 1.51 1.37 1.21 1.22 1.15 1.14 1.17 1.26 1.21 1.21 1.17 1.10 1.09 1.00 0.96 0.90 0.92 0.89 0.89 0.90 0.91 0.92 0.97 1.00 0.97 0.96 0.95 0.93 0.91 0.89 0.87 0.85 0.85 0.87 0.86 0.88 0.88 0.84 0.80 0.77 0.73 0.71
1.61 1.48 1.36 1.21 1.20 1.17 1.17 1.15 1.24 1.21 1.19 1.19 1.11 1.08 1.04 1.00 0.94 0.95 0.93 0.86 0.86 0.85 0.86 0.89 0.88 0.88 0.88 0.86 0.85 0.85 0.85 0.84 0.82 0.81 0.81 0.80 0.80 0.80 0.81 0.78 0.75 0.72 0.71
1.57 1.46 1.32 1.22 1.16 1.13 1.21 1.13 1.20 1.13 1.15 1.13 1.09 1.07 1.04 1.03 1.02 0.96 0.96 0.94 0.87 0.85 0.83 0.87 0.88 0.85 0.81 0.78 0.75 0.76 0.78 0.78 0.77 0.77 0.73 0.73 0.71 0.72 0.73 0.75 0.72 0.71 0.70
1.53 1.45 1.33 1.26 1.22 1.09 1.15 1.15 1.20 1.11 1.10 1.12 1.07 1.07 1.05 1.02 1.06 1.02 0.96 0.97 0.95 0.92 0.85 0.83 0.88 0.87 0.83 0.80 0.76 0.73 0.74 0.73 0.73 0.71 0.69 0.67 0.67 0.67 0.65 0.68 0.71 0.72 0.71
1.53 1.52 1.40 1.35 1.29 1.08 1.06 1.16 1.11 1.10 1.07 1.05 1.05 1.04 1.06 1.05 1.07 1.04 1.02 0.95 0.97 0.98 0.97 0.94 0.87 0.86 0.84 0.81 0.80 0.78 0.78 0.75 0.74 0.73 0.72 0.69 0.69 0.68 0.68 0.69 0.71 0.72 0.71
1.49 1.53 1.50 1.45 1.35 1.13 1.00 1.05 1.11 1.14 1.07 1.11 1.00 1.02 1.05 1.08 1.05 1.04 1.05 1.01 0.97 0.94 0.99 1.02 0.91 0.89 0.84 0.82 0.82 0.83 0.82 0.82 0.80 0.78 0.78 0.76 0.73 0.73 0.72 0.74 0.77 0.75 0.73
1.57 1.50 1.49 1.51 1.48 1.25 1.11 1.05 1.06 1.05 1.10 1.12 0.98 1.00 0.89 0.96 1.01 1.03 1.02 1.01 0.99 0.99 0.97 0.98 0.95 0.93 0.95 0.85 0.82 0.82 0.87 0.86 0.84 0.83 0.80 0.78 0.78 0.76 0.76 0.76 0.78 0.77 0.76
1.61 1.58 1.53 1.52 1.55 1.45 1.19 1.12 1.07 1.02 1.02 1.12 1.16 1.10 0.96 0.81 0.86 0.97 0.97 1.00 0.98 0.97 0.98 0.98 0.97 0.96 0.99 0.96 0.89 0.85 0.86 0.86 0.86 0.84 0.82 0.80 0.78 0.78 0.78 0.77 0.77 0.79 0.78
1.60 1.58 1.62 1.59 1.55 1.53 1.41 1.24 1.20 1.07 1.00 1.03 1.17 1.23 1.16 1.02 0.87 0.79 0.95 0.97 1.00 0.97 0.97 0.96 0.96 0.97 0.97 0.98 0.98 0.92 0.84 0.86 0.87 0.86 0.84 0.84 0.83 0.81 0.81 0.78 0.78 0.80 0.79
1.51 1.61 1.62 1.62 1.58 1.53 1.47 1.40 1.21 1.07 1.06 1.17 1.28 1.28 1.18 1.09 1.08 0.97 0.86 0.93 1.00 0.99 1.00 0.98 0.98 0.98 0.99 0.98 0.99 1.00 0.92 0.85 0.88 0.89 0.88 0.86 0.87 0.86 0.85 0.84 0.83 0.84 0.83
1.54 1.56 1.64 1.62 1.57 1.50 1.46 1.42 1.34 1.26 1.24 1.29 1.43 1.33 1.28 1.18 1.03 1.03 0.98 1.00 0.96 0.99 1.01 1.02 1.01 1.03 1.07 1.06 1.03 1.05 1.00 0.92 0.90 0.90 0.91 0.91 0.91 0.91 0.90 0.89 0.88 0.87 0.88
1.49 1.52 1.59 1.56 1.50 1.50 1.48 1.44 1.38 1.32 1.32 1.33 1.37 1.36 1.37 1.28 1.21 1.16 1.04 1.03 1.02 1.10 1.08 1.07 1.04 1.06 1.09 1.13 1.15 1.18 1.16 1.05 0.96 0.92 0.93 0.94 0.95 0.96 0.96 0.94 0.93 0.93 0.93
1.45 1.48 1.51 1.50 1.47 1.49 1.54 1.48 1.43 1.38 1.37 1.41 1.38 1.45 1.39 1.34 1.31 1.21 1.11 1.03 1.02 1.05 1.10 1.08 1.16 1.08 1.10 1.11 1.15 1.18 1.22 1.22 1.18 1.08 0.99 0.98 0.98 0.99 0.99 0.99 0.99 1.00 1.01
1.49 1.41 1.41 1.40 1.43 1.45 1.56 1.52 1.44 1.39 1.43 1.43 1.40 1.40 1.36 1.37 1.35 1.30 1.23 1.19 1.06 0.97 0.99 1.14 1.12 1.22 1.16 1.15 1.17 1.21 1.25 1.26 1.25 1.22 1.15 1.08 1.06 1.04 1.04 1.05 1.05 1.05 1.06
1.51 1.49 1.44 1.41 1.39 1.44 1.54 1.57 1.52 1.48 1.45 1.45 1.41 1.40 1.36 1.35 1.33 1.35 1.30 1.24 1.21 1.10 1.02 1.16 1.21 1.26 1.28 1.22 1.23 1.23 1.25 1.26 1.26 1.25 1.20 1.15 1.12 1.09 1.08 1.07 1.08 1.09 1.11
1.55 1.54 1.58 1.47 1.43 1.48 1.53 1.53 1.52 1.50 1.44 1.43 1.45 1.41 1.34 1.37 1.33 1.35 1.34 1.27 1.22 1.20 1.09 1.17 1.27 1.32 1.31 1.28 1.24 1.27 1.31 1.32 1.32 1.30 1.28 1.24 1.17 1.14 1.14 1.15 1.17 1.18 1.18
1.52 1.63 1.70 1.54 1.52 1.53 1.54 1.51 1.50 1.50 1.47 1.43 1.44 1.45 1.36 1.39 1.35 1.37 1.36 1.30 1.25 1.25 1.16 1.11 1.24 1.30 1.31 1.36 1.35 1.33 1.35 1.36 1.39 1.41 1.39 1.35 1.31 1.24 1.21 1.22 1.22 1.24 1.24
1.43 1.50 1.60 1.60 1.54 1.52 1.52 1.60 1.58 1.50 1.48 1.48 1.46 1.43 1.42 1.43 1.39 1.40 1.40 1.34 1.33 1.33 1.30 1.22 1.21 1.34 1.37 1.43 1.40 1.42 1.41 1.40 1.42 1.43 1.41 1.41 1.37 1.33 1.30 1.27 1.27 1.27 1.29
1.31 1.42 1.43 1.48 1.47 1.58 1.55 1.54 1.61 1.50 1.51 1.50 1.50 1.49 1.47 1.47 1.44 1.42 1.41 1.40 1.40 1.36 1.33 1.29 1.29 1.31 1.35 1.41 1.39 1.33 1.33 1.41 1.36 1.40 1.38 1.37 1.37 1.35 1.32 1.32 1.32 1.32 1.32
1.20 1.28 1.38 1.34 1.34 1.34 1.38 1.42 1.53 1.57 1.49 1.49 1.52 1.51 1.52 1.55 1.56 1.55 1.48 1.46 1.43 1.39 1.36 1.31 1.28 1.30 1.31 1.35 1.29 1.35 1.32 1.35 1.38 1.44 1.37 1.34 1.37 1.40 1.42 1.44 1.41 1.40 1.38
1.09 1.11 1.20 1.27 1.27 1.24 1.26 1.34 1.37 1.38 1.51 1.50 1.46 1.57 1.57 1.56 1.61 1.53 1.65 1.58 1.59 1.50 1.45 1.38 1.34 1.29 1.29 1.35 1.42 1.36 1.34 1.28 1.20 1.58 1.38 1.35 1.42 1.38 1.45 1.47 1.46 1.47 1.45
0.99 1.03 1.03 1.13 1.16 1.16 1.19 1.27 1.35 1.34 1.43 1.45 1.47 1.52 1.51 1.57 1.55 1.52 1.57 1.56 1.60 1.58 1.55 1.47 1.35 1.35 1.38 1.40 1.44 1.36 1.37 1.32 1.25 1.39 1.38 1.25 1.39 1.34 1.40 1.42 1.44 1.48 1.45
0.87 0.88 0.92 1.04 1.05 1.14 1.09 1.18 1.17 1.27 1.27 1.32 1.34 1.37 1.44 1.45 1.48 1.51 1.51 1.48 1.51 1.51 1.50 1.47 1.46 1.44 1.43 1.44 1.45 1.44 1.37 1.34 1.37 1.38 1.38 1.15 1.31 1.33 1.42 1.43 1.49 1.45 1.41
0.67 0.74 0.85 0.88 0.93 0.97 1.03 1.06 1.07 1.08 1.07 1.16 1.21 1.32 1.31 1.36 1.37 1.42 1.39 1.39 1.40 1.42 1.49 1.51 1.52 1.49 1.49 1.50 1.53 1.44 1.30 1.26 1.21 1.24 1.35 1.24 1.23 1.24 1.32 1.34 1.39 1.39 1.37
0.63 0.65 0.66 0.77 0.84 0.86 0.94 0.98 1.06 0.99 0.94 0.99 1.04 1.09 1.11 1.18 1.24 1.33 1.34 1.32 1.29 1.32 1.35 1.42 1.41 1.42 1.47 1.46 1.46 1.44 1.38 1.24 1.18 1.14 1.25 1.19 1.19 1.21 1.16 1.28 1.29 1.31 1.30
Wind_Speed
35 34 32 30 28 27 25 22 20 18 17 17 17 15 15 13 14 13 15 15 14 14 13 13 12 12 11 11 10 9 8 7 6 5 4 4 4 3 3 3 2 2 1
36 35 33 32 30 29 27 25 22 20 18 18 18 17 16 15 15 14 15 16 15 15 14 13 13 12 12 11 11 10 9 8 7 6 5 4 4 3 2 2 2 1 1
39 36 35 33 32 31 29 28 25 23 20 19 19 19 18 17 16 15 15 16 16 15 15 15 14 14 13 12 12 11 10 9 8 7 6 5 5 4 3 3 2 2 2
40 38 37 35 34 33 31 29 27 25 23 21 20 20 19 19 18 17 16 16 16 16 16 15 15 15 14 13 13 13 12 11 10 9 8 7 7 6 5 5 4 3 3
41 40 38 37 37 35 33 31 30 27 26 23 22 21 21 20 20 19 18 18 17 17 16 17 16 15 15 14 14 14 13 12 11 10 10 9 9 8 7 6 5 5 4
42 41 39 39 38 37 37 33 32 30 28 27 24 23 22 21 21 21 21 20 19 19 18 17 17 17 16 16 15 15 14 13 13 12 10 10 9 9 8 8 7 6 6
44 43 41 41 40 39 38 36 34 33 31 29 26 25 24 24 23 23 23 22 22 21 20 19 19 18 18 18 17 16 16 15 14 14 13 12 11 11 10 10 9 9 8
42 43 44 43 42 40 39 39 38 35 33 32 30 27 25 26 26 26 25 24 23 23 23 22 21 20 19 20 20 19 18 18 17 16 15 15 14 14 13 13 13 12 11
43 43 45 43 44 43 42 41 41 39 36 35 33 29 27 26 27 28 28 26 25 25 24 24 24 23 22 21 21 21 21 21 20 19 18 18 17 17 16 16 16 15 14
43 43 44 45 45 45 44 44 43 42 40 38 36 34 30 27 28 26 30 30 28 28 27 26 26 26 25 24 23 23 24 23 23 22 21 20 20 19 19 18 18 18 17
45 45 45 45 45 46 46 47 46 45 43 41 39 39 39 34 32 29 29 30 31 30 29 28 28 28 28 27 25 25 25 25 25 24 23 23 22 21 21 21 20 20 20
46 47 47 46 46 46 48 49 50 49 48 45 43 44 43 40 36 33 31 31 31 32 32 31 30 29 29 29 28 27 27 27 27 26 25 25 24 23 23 22 22 22 22
47 47 47 47 47 47 47 48 50 50 48 45 43 45 45 40 41 37 35 31 31 30 31 33 32 32 31 31 30 30 30 29 29 29 28 27 27 26 25 25 24 24 24
49 48 49 48 47 47 46 47 48 48 48 47 42 43 42 41 42 41 38 35 31 33 32 32 33 33 33 32 32 32 31 32 31 31 31 30 29 29 28 27 27 26 26
48 49 49 49 49 48 48 46 46 48 47 47 45 42 43 41 42 42 40 41 36 34 34 33 32 35 34 34 33 33 33 32 33 33 34 33 32 32 31 30 30 29 29
48 48 49 49 49 49 49 47 47 47 47 46 46 45 45 42 41 42 42 40 41 38 36 35 35 33 35 36 35 35 34 34 35 35 35 35 35 34 34 34 33 33 32
48 49 48 48 49 49 48 48 45 48 48 47 47 47 47 45 44 42 42 42 41 42 38 36 34 36 35 35 36 37 37 36 35 37 37 37 38 37 37 37 36 36 35
42 47 47 47 48 48 49 48 46 45 47 47 47 47 48 46 46 44 43 43 43 41 42 40 38 33 37 37 37 37 37 38 37 37 38 39 39 40 40 40 40 40 39
38 39 39 45 47 46 47 47 47 46 47 48 47 47 47 49 49 47 45 44 43 43 43 42 42 42 41 38 40 40 38 38 38 38 39 40 40 41 42 42 41 41 41
31 36 36 35 35 38 44 46 47 46 47 48 49 49 48 49 50 49 48 46 44 43 43 42 42 41 40 41 39 39 39 39 38 38 38 39 39 39 40 41 43 43 43
28 32 33 32 34 34 35 38 42 46 46 47 48 47 48 49 48 51 51 49 48 46 45 44 43 41 41 41 41 39 39 38 39 38 38 39 40 40 41 42 43 43 45
27 24 30 30 31 32 32 33 37 39 46 47 45 46 48 49 47 51 47 49 49 45 44 44 44 44 43 44 45 44 43 42 42 40 39 41 43 44 45 45 44 45 45
26 27 27 29 32 33 31 31 34 34 35 39 37 42 42 47 43 45 49 47 42 43 44 45 45 47 46 44 45 46 46 45 45 45 43 45 45 48 49 47 48 45 45
25 31 27 25 30 28 31 32 32 34 36 32 33 31 31 34 41 45 42 45 47 48 45 42 41 40 40 41 45 47 44 41 39 41 43 43 40 42 41 44 45 45 42
24 24 24 28 32 30 32 33 34 32 32 30 30 30 32 32 33 39 37 38 37 39 38 39 37 35 36 34 33 36 38 34 33 32 33 35 34 31 31 32 33 34 36
22 22 25 24 28 29 31 33 37 37 36 35 34 34 31 31 28 31 33 34 34 35 36 35 39 38 35 34 33 34 34 35 32 32 32 30 28 27 28 31 32 33 34
Wind_Direction
208 205 205 205 205 203 202 199 198 196 195 194 193 192 188 187 185 185 184 185 184 184 184 185 185 184 184 183 183 183 183 182 178 174 170 161 151 146 148 150 150 148 137
208 206 206 207 207 206 205 204 203 202 201 200 199 198 196 194 192 191 192 194 195 195 195 195 196 196 197 197 199 198 199 196 195 193 190 187 180 178 179 178 184 191 220
208 207 208 208 209 208 208 207 207 208 207 204 204 203 202 201 201 198 198 200 202 203 206 207 208 208 209 209 210 210 208 207 208 209 210 211 213 215 217 217 223 232 212
209 210 210 210 210 210 210 211 209 211 209 208 208 207 208 208 207 207 205 205 207 209 212 213 213 215 215 216 217 217 217 218 219 222 225 225 227 230 233 235 236 218 226
211 212 212 212 212 212 212 212 212 212 212 212 211 212 212 213 213 213 213 213 213 214 215 216 217 218 219 219 220 220 221 223 224 226 227 229 231 233 231 227 224 227 231
213 213 214 213 212 214 214 214 214 215 216 215 214 215 216 218 218 218 219 219 219 220 221 220 221 222 222 221 221 222 222 224 224 225 226 228 229 230 229 231 231 233 239
214 215 216 216 215 216 217 217 216 216 217 216 216 217 222 223 222 222 222 223 224 224 225 225 224 225 225 225 225 225 225 226 227 229 230 232 233 235 236 238 238 240 245
215 216 218 218 217 217 218 217 217 218 219 219 221 220 225 227 227 226 225 226 226 227 228 228 227 228 229 229 229 229 230 231 232 233 235 237 239 240 242 243 244 246 250
217 218 219 220 219 219 220 219 220 220 222 222 225 231 226 230 226 228 228 228 228 230 231 231 231 231 231 232 232 233 234 235 236 238 240 242 243 244 246 246 247 248 250
219 220 220 221 221 222 222 222 222 223 223 224 226 228 229 230 227 229 229 230 231 232 232 233 233 234 234 236 236 237 237 238 238 241 243 244 245 246 248 248 249 250 253
223 221 221 222 223 224 224 224 223 224 226 228 232 234 232 233 232 230 231 230 233 234 234 235 235 236 236 237 239 240 240 239 241 242 244 245 247 248 249 250 250 251 253
224 222 222 223 225 226 227 228 228 229 231 235 237 234 232 232 230 231 231 231 234 235 235 236 237 238 239 239 240 241 241 241 242 243 245 245 247 248 250 250 251 252 254
223 222 223 225 227 229 230 231 230 231 233 235 240 235 229 230 229 232 232 234 234 236 237 237 238 239 241 241 242 242 242 243 244 244 245 246 247 249 250 251 252 253 255
224 226 226 227 229 231 231 231 232 232 232 234 237 226 227 230 229 230 231 233 235 238 238 239 239 240 241 242 243 243 244 244 245 246 246 247 248 249 250 251 253 255 257
225 226 227 229 230 231 230 231 232 231 231 232 231 229 228 229 230 230 231 234 238 238 239 239 243 242 242 243 243 243 244 245 246 247 247 248 249 249 250 252 254 256 258
227 227 228 229 229 229 230 231 232 230 229 229 229 230 230 229 230 230 233 235 236 240 242 241 243 245 243 244 245 244 246 247 247 248 248 249 249 250 251 252 254 256 258
229 227 227 227 226 227 228 229 231 229 229 229 230 230 230 229 231 232 233 234 236 237 241 242 246 244 243 245 246 246 247 249 250 250 250 250 250 251 252 253 255 257 259
229 228 225 225 225 227 227 227 228 227 228 229 229 230 230 231 232 232 233 235 236 238 239 241 244 247 245 246 247 249 249 250 251 252 251 252 252 253 253 254 255 257 259
228 226 223 224 225 225 224 226 228 229 229 229 230 231 232 233 233 233 235 235 237 239 240 243 245 247 249 249 247 250 251 251 252 253 252 253 254 254 254 255 256 257 259
227 223 224 219 221 222 226 227 228 229 230 231 232 233 234 234 234 233 235 237 238 239 240 242 244 245 247 248 246 248 251 251 253 253 253 254 255 255 255 256 257 258 260
228 226 225 221 222 224 227 229 230 229 232 232 233 234 234 235 234 235 236 238 238 239 241 242 245 246 246 248 246 249 250 251 253 255 256 257 257 257 258 258 260 260 261
232 233 220 219 220 225 228 231 232 232 233 227 232 234 236 236 237 236 235 237 238 236 240 242 245 247 249 248 248 249 250 253 255 254 257 259 259 260 259 260 261 263 263
236 234 230 223 225 230 229 233 234 236 237 234 235 236 238 234 232 239 235 236 235 238 241 242 246 250 249 250 248 247 248 256 257 256 256 263 264 263 260 259 262 263 266
240 238 231 223 228 235 234 233 238 237 238 231 234 242 236 243 240 237 238 239 240 241 242 242 247 247 245 251 250 248 252 254 256 255 255 260 268 270 255 256 260 260 261
250 249 245 239 237 240 240 242 237 236 237 241 244 243 248 243 249 234 237 233 234 237 241 241 243 243 246 252 247 244 240 251 253 254 254 259 265 258 257 261 259 260 261
255 253 245 244 240 238 239 244 245 245 242 243 245 245 244 239 241 234 235 233 238 241 243 242 242 244 247 248 247 245 244 247 253 255 256 256 258 258 257 260 262 264 264